Time,TemperatureF,DewpointF,PressureIn,WindDirection,WindDirectionDegrees,WindSpeedMPH,WindSpeedGustMPH,Humidity,HourlyPrecipIn,Conditions,Clouds,dailyrainin,SoftwareType,DateUTC
2013-01-09 00:00:00,44.3,34.4,30.38,North,0,0.0,0.0,68,0.00,,,0.00,WUHU216HW,2013-01-09 05:00:00,
2013-01-09 00:01:00,44.3,34.4,30.38,North,0,0.0,0.0,68,0.00,,,0.00,WUHU216HW,2013-01-09 05:01:00,
2013-01-09 00:03:00,44.3,34.4,30.38,North,0,0.0,0.0,68,0.00,,,0.00,WUHU216HW,2013-01-09 05:03:00,
2013-01-09 00:08:00,44.3,34.4,30.38,North,0,0.0,0.0,68,0.00,,,0.00,WUHU216HW,2013-01-09 05:08:00,
2013-01-09 00:30:00,43.6,33.3,30.38,North,0,0.0,0.0,67,0.00,,,0.00,WUHU216HW,2013-01-09 05:30:00,
2013-01-09 00:35:00,43.6,33.3,30.38,North,0,0.0,0.0,67,0.00,,,0.00,WUHU216HW,2013-01-09 05:35:00,
2013-01-09 01:00:00,42.3,31.8,30.37,North,0,0.0,0.0,66,0.00,,,0.00,WUHU216HW,2013-01-09 06:00:00,
2013-01-09 01:05:00,42.3,31.8,30.37,North,0,0.0,0.0,66,0.00,,,0.00,WUHU216HW,2013-01-09 06:05:00,
2013-01-09 01:30:00,41.4,30.2,30.36,North,0,0.0,0.0,64,0.00,,,0.00,WUHU216HW,2013-01-09 06:30:00,
2013-01-09 01:35:00,41.4,30.2,30.36,North,0,0.0,0.0,64,0.00,,,0.00,WUHU216HW,2013-01-09 06:35:00,
2013-01-09 01:59:00,40.5,28.9,30.36,North,0,0.0,0.0,63,0.00,,,0.00,WUHU216HW,2013-01-09 06:59:00,
2013-01-09 02:00:00,40.5,28.9,30.36,North,0,0.0,0.0,63,0.00,,,0.00,WUHU216HW,2013-01-09 07:00:00,
2013-01-09 02:05:00,40.5,28.9,30.36,North,0,0.0,0.0,63,0.00,,,0.00,WUHU216HW,2013-01-09 07:05:00,
2013-01-09 02:30:00,39.6,25.5,30.38,North,0,0.0,0.0,57,0.00,,,0.00,WUHU216HW,2013-01-09 07:30:00,
2013-01-09 02:35:00,39.6,25.5,30.38,North,0,0.0,0.0,57,0.00,,,0.00,WUHU216HW,2013-01-09 07:35:00,
2013-01-09 02:59:00,38.5,22.8,30.39,North,0,0.0,0.0,53,0.00,,,0.00,WUHU216HW,2013-01-09 07:59:00,
2013-01-09 03:00:00,38.5,22.8,30.39,North,0,0.0,0.0,53,0.00,,,0.00,WUHU216HW,2013-01-09 08:00:00,
2013-01-09 03:05:00,38.5,22.8,30.39,North,0,0.0,0.0,53,0.00,,,0.00,WUHU216HW,2013-01-09 08:05:00,
2013-01-09 03:30:00,38.3,22.6,30.38,North,0,0.0,0.0,53,0.00,,,0.00,WUHU216HW,2013-01-09 08:30:00,
2013-01-09 03:35:00,38.3,22.6,30.38,North,0,0.0,0.0,53,0.00,,,0.00,WUHU216HW,2013-01-09 08:35:00,
2013-01-09 03:59:00,38.2,23.8,30.37,North,0,0.0,0.0,56,0.00,,,0.00,WUHU216HW,2013-01-09 08:59:00,
2013-01-09 04:00:00,38.2,23.8,30.37,North,0,0.0,0.0,56,0.00,,,0.00,WUHU216HW,2013-01-09 09:00:00,
2013-01-09 04:05:00,38.2,23.8,30.37,North,0,0.0,0.0,56,0.00,,,0.00,WUHU216HW,2013-01-09 09:05:00,
2013-01-09 04:30:00,38.2,25.0,30.37,North,0,0.0,0.0,59,0.00,,,0.00,WUHU216HW,2013-01-09 09:30:00,
2013-01-09 04:35:00,38.2,25.0,30.37,North,0,0.0,0.0,59,0.00,,,0.00,WUHU216HW,2013-01-09 09:35:00,
2013-01-09 04:59:00,36.9,20.4,30.37,North,0,0.0,0.0,51,0.00,,,0.00,WUHU216HW,2013-01-09 09:59:00,
2013-01-09 05:00:00,36.9,20.4,30.37,North,0,0.0,0.0,51,0.00,,,0.00,WUHU216HW,2013-01-09 10:00:00,
2013-01-09 05:05:00,36.9,20.4,30.37,North,0,0.0,0.0,51,0.00,,,0.00,WUHU216HW,2013-01-09 10:05:00,
2013-01-09 05:30:00,36.5,19.2,30.37,North,0,0.0,0.0,49,0.00,,,0.00,WUHU216HW,2013-01-09 10:30:00,
2013-01-09 05:35:00,36.5,19.2,30.37,North,0,0.0,0.0,49,0.00,,,0.00,WUHU216HW,2013-01-09 10:35:00,
2013-01-09 06:00:00,36.5,20.2,30.37,North,0,0.0,0.0,51,0.00,,,0.00,WUHU216HW,2013-01-09 11:00:00,
2013-01-09 06:05:00,36.5,20.2,30.37,North,0,0.0,0.0,51,0.00,,,0.00,WUHU216HW,2013-01-09 11:05:00,
2013-01-09 06:30:00,36.5,21.9,30.38,North,0,0.0,0.0,55,0.00,,,0.00,WUHU216HW,2013-01-09 11:30:00,
2013-01-09 06:35:00,36.5,21.9,30.38,North,0,0.0,0.0,55,0.00,,,0.00,WUHU216HW,2013-01-09 11:35:00,
2013-01-09 07:00:00,35.8,21.3,30.39,North,0,0.0,0.0,55,0.00,,,0.00,WUHU216HW,2013-01-09 12:00:00,
2013-01-09 07:05:00,35.8,21.3,30.39,North,0,0.0,0.0,55,0.00,,,0.00,WUHU216HW,2013-01-09 12:05:00,
2013-01-09 07:30:00,35.3,18.5,30.40,North,0,0.0,0.0,50,0.00,,,0.00,WUHU216HW,2013-01-09 12:30:00,
2013-01-09 07:35:00,35.3,18.5,30.40,North,0,0.0,0.0,50,0.00,,,0.00,WUHU216HW,2013-01-09 12:35:00,
2013-01-09 08:00:00,35.6,16.8,30.41,North,0,0.0,0.0,46,0.00,,,0.00,WUHU216HW,2013-01-09 13:00:00,
2013-01-09 08:05:00,35.6,16.8,30.41,North,0,0.0,0.0,46,0.00,,,0.00,WUHU216HW,2013-01-09 13:05:00,
2013-01-09 08:30:00,36.5,16.0,30.41,North,0,0.0,0.0,43,0.00,,,0.00,WUHU216HW,2013-01-09 13:30:00,
2013-01-09 08:35:00,36.5,16.0,30.41,North,0,0.0,0.0,43,0.00,,,0.00,WUHU216HW,2013-01-09 13:35:00,
2013-01-09 09:00:00,39.6,9.9,30.42,North,0,0.0,0.0,29,0.00,,,0.00,WUHU216HW,2013-01-09 14:00:00,
2013-01-09 09:05:00,39.6,9.9,30.42,North,0,0.0,0.0,29,0.00,,,0.00,WUHU216HW,2013-01-09 14:05:00,
2013-01-09 09:30:00,43.0,17.6,30.42,North,0,0.0,0.0,36,0.00,,,0.00,WUHU216HW,2013-01-09 14:30:00,
2013-01-09 09:35:00,43.0,17.6,30.42,North,0,0.0,0.0,36,0.00,,,0.00,WUHU216HW,2013-01-09 14:35:00,
2013-01-09 10:00:00,49.0,37.3,30.43,North,0,0.0,0.0,64,0.00,,,0.00,WUHU216HW,2013-01-09 15:00:00,
2013-01-09 10:05:00,49.0,37.3,30.43,North,0,0.0,0.0,64,0.00,,,0.00,WUHU216HW,2013-01-09 15:05:00,
2013-01-09 10:30:00,51.5,40.9,30.44,North,0,0.0,0.0,67,0.00,,,0.00,WUHU216HW,2013-01-09 15:30:00,
2013-01-09 10:35:00,51.5,40.9,30.44,North,0,0.0,0.0,67,0.00,,,0.00,WUHU216HW,2013-01-09 15:35:00,
2013-01-09 11:00:00,53.1,42.0,30.43,North,0,0.0,0.0,66,0.00,,,0.00,WUHU216HW,2013-01-09 16:00:00,
2013-01-09 11:05:00,53.1,42.0,30.43,North,0,0.0,0.0,66,0.00,,,0.00,WUHU216HW,2013-01-09 16:05:00,
2013-01-09 11:30:00,54.7,43.6,30.42,North,0,0.0,0.0,66,0.00,,,0.00,WUHU216HW,2013-01-09 16:30:00,
2013-01-09 11:35:00,54.7,43.6,30.42,North,0,0.0,0.0,66,0.00,,,0.00,WUHU216HW,2013-01-09 16:35:00,
2013-01-09 12:00:00,56.5,44.8,30.39,North,0,0.0,0.0,65,0.00,,,0.00,WUHU216HW,2013-01-09 17:00:00,
2013-01-09 12:05:00,56.5,44.8,30.39,North,0,0.0,0.0,65,0.00,,,0.00,WUHU216HW,2013-01-09 17:05:00,
2013-01-09 12:30:00,59.6,48.3,30.38,North,0,0.0,0.0,66,0.00,,,0.00,WUHU216HW,2013-01-09 17:30:00,
2013-01-09 12:35:00,59.6,48.3,30.38,North,0,0.0,0.0,66,0.00,,,0.00,WUHU216HW,2013-01-09 17:35:00,
2013-01-09 13:00:00,61.6,50.5,30.36,North,0,0.0,0.0,67,0.00,,,0.00,WUHU216HW,2013-01-09 18:00:00,
2013-01-09 13:05:00,61.6,50.5,30.36,North,0,0.0,0.0,67,0.00,,,0.00,WUHU216HW,2013-01-09 18:05:00,
2013-01-09 13:30:00,64.1,52.0,30.35,North,0,0.0,0.0,65,0.00,,,0.00,WUHU216HW,2013-01-09 18:30:00,
2013-01-09 13:35:00,64.1,52.0,30.35,North,0,0.0,0.0,65,0.00,,,0.00,WUHU216HW,2013-01-09 18:35:00,
2013-01-09 14:00:00,64.4,52.8,30.34,North,0,0.0,0.0,66,0.00,,,0.00,WUHU216HW,2013-01-09 19:00:00,
2013-01-09 14:01:00,64.4,52.8,30.34,North,0,0.0,0.0,66,0.00,,,0.00,WUHU216HW,2013-01-09 19:01:00,
2013-01-09 14:07:00,64.4,52.8,30.34,North,0,0.0,0.0,66,0.00,,,0.00,WUHU216HW,2013-01-09 19:07:00,
2013-01-09 14:30:00,64.6,53.0,30.35,North,0,0.0,0.0,66,0.00,,,0.00,WUHU216HW,2013-01-09 19:30:00,
2013-01-09 14:35:00,64.6,53.0,30.35,North,0,0.0,0.0,66,0.00,,,0.00,WUHU216HW,2013-01-09 19:35:00,
2013-01-09 14:59:00,64.1,52.5,30.35,North,0,0.0,0.0,66,0.00,,,0.00,WUHU216HW,2013-01-09 19:59:00,
2013-01-09 15:00:00,64.1,52.5,30.35,North,0,0.0,0.0,66,0.00,,,0.00,WUHU216HW,2013-01-09 20:00:00,
2013-01-09 15:05:00,64.1,52.5,30.35,North,0,0.0,0.0,66,0.00,,,0.00,WUHU216HW,2013-01-09 20:05:00,
2013-01-09 15:30:00,63.9,52.3,30.36,North,0,0.0,0.0,66,0.00,,,0.00,WUHU216HW,2013-01-09 20:30:00,
2013-01-09 15:35:00,63.9,52.3,30.36,North,0,0.0,0.0,66,0.00,,,0.00,WUHU216HW,2013-01-09 20:35:00,
2013-01-09 15:59:00,63.9,52.3,30.36,North,0,0.0,0.0,66,0.00,,,0.00,WUHU216HW,2013-01-09 20:59:00,
2013-01-09 16:00:00,63.9,52.3,30.36,North,0,0.0,0.0,66,0.00,,,0.00,WUHU216HW,2013-01-09 21:00:00,
2013-01-09 16:05:00,63.9,52.3,30.36,North,0,0.0,0.0,66,0.00,,,0.00,WUHU216HW,2013-01-09 21:05:00,
2013-01-09 16:30:00,62.6,51.5,30.36,North,0,0.0,0.0,67,0.00,,,0.00,WUHU216HW,2013-01-09 21:30:00,
2013-01-09 16:35:00,62.6,51.5,30.36,North,0,0.0,0.0,67,0.00,,,0.00,WUHU216HW,2013-01-09 21:35:00,
2013-01-09 16:59:00,61.0,50.5,30.36,North,0,0.0,0.0,68,0.00,,,0.00,WUHU216HW,2013-01-09 21:59:00,
2013-01-09 17:00:00,61.0,50.5,30.36,North,0,0.0,0.0,68,0.00,,,0.00,WUHU216HW,2013-01-09 22:00:00,
2013-01-09 17:05:00,61.0,50.5,30.36,North,0,0.0,0.0,68,0.00,,,0.00,WUHU216HW,2013-01-09 22:05:00,
2013-01-09 17:30:00,59.6,49.4,30.37,North,0,0.0,0.0,69,0.00,,,0.00,WUHU216HW,2013-01-09 22:30:00,
2013-01-09 17:35:00,59.6,49.4,30.37,North,0,0.0,0.0,69,0.00,,,0.00,WUHU216HW,2013-01-09 22:35:00,
2013-01-09 17:59:00,57.8,46.9,30.37,North,0,0.0,0.0,67,0.00,,,0.00,WUHU216HW,2013-01-09 22:59:00,
2013-01-09 18:00:00,57.8,46.9,30.37,North,0,0.0,0.0,67,0.00,,,0.00,WUHU216HW,2013-01-09 23:00:00,
2013-01-09 18:05:00,57.8,46.9,30.37,North,0,0.0,0.0,67,0.00,,,0.00,WUHU216HW,2013-01-09 23:05:00,
2013-01-09 18:30:00,57.2,46.4,30.35,North,0,0.0,0.0,67,0.00,,,0.00,WUHU216HW,2013-01-09 23:30:00,
2013-01-09 18:35:00,57.2,46.4,30.35,North,0,0.0,0.0,67,0.00,,,0.00,WUHU216HW,2013-01-09 23:35:00,
2013-01-09 18:59:00,56.0,44.4,30.36,North,0,0.0,0.0,65,0.00,,,0.00,WUHU216HW,2013-01-09 23:59:00,
2013-01-09 19:00:00,56.0,44.4,30.36,North,0,0.0,0.0,65,0.00,,,0.00,WUHU216HW,2013-01-10 00:00:00,
2013-01-09 19:05:00,56.0,44.4,30.36,North,0,0.0,0.0,65,0.00,,,0.00,WUHU216HW,2013-01-10 00:05:00,
2013-01-09 19:30:00,55.3,42.4,30.37,North,0,0.0,0.0,62,0.00,,,0.00,WUHU216HW,2013-01-10 00:30:00,
2013-01-09 19:35:00,55.3,42.4,30.37,North,0,0.0,0.0,62,0.00,,,0.00,WUHU216HW,2013-01-10 00:35:00,
2013-01-09 19:59:00,54.7,42.0,30.38,North,0,0.0,0.0,62,0.00,,,0.00,WUHU216HW,2013-01-10 00:59:00,
2013-01-09 20:00:00,54.7,42.0,30.38,North,0,0.0,0.0,62,0.00,,,0.00,WUHU216HW,2013-01-10 01:00:00,
2013-01-09 20:05:00,54.7,42.0,30.38,North,0,0.0,0.0,62,0.00,,,0.00,WUHU216HW,2013-01-10 01:05:00,
2013-01-09 20:30:00,53.6,39.7,30.38,North,0,0.0,0.0,59,0.00,,,0.00,WUHU216HW,2013-01-10 01:30:00,
2013-01-09 20:35:00,53.6,39.7,30.38,North,0,0.0,0.0,59,0.00,,,0.00,WUHU216HW,2013-01-10 01:35:00,
2013-01-09 20:59:00,52.6,37.7,30.39,North,0,0.0,0.0,57,0.00,,,0.00,WUHU216HW,2013-01-10 01:59:00,
2013-01-09 21:00:00,52.6,37.7,30.39,North,0,0.0,0.0,57,0.00,,,0.00,WUHU216HW,2013-01-10 02:00:00,
2013-01-09 21:05:00,52.6,37.7,30.39,North,0,0.0,0.0,57,0.00,,,0.00,WUHU216HW,2013-01-10 02:05:00,
2013-01-09 21:30:00,51.7,35.9,30.40,North,0,0.0,0.0,55,0.00,,,0.00,WUHU216HW,2013-01-10 02:30:00,
2013-01-09 21:35:00,51.7,35.9,30.40,North,0,0.0,0.0,55,0.00,,,0.00,WUHU216HW,2013-01-10 02:35:00,
2013-01-09 21:59:00,50.9,34.4,30.40,North,0,0.0,0.0,53,0.00,,,0.00,WUHU216HW,2013-01-10 02:59:00,
2013-01-09 22:00:00,50.9,34.4,30.40,North,0,0.0,0.0,53,0.00,,,0.00,WUHU216HW,2013-01-10 03:00:00,
2013-01-09 22:05:00,50.9,34.4,30.40,North,0,0.0,0.0,53,0.00,,,0.00,WUHU216HW,2013-01-10 03:05:00,
2013-01-09 22:30:00,50.0,34.9,30.40,North,0,0.0,0.0,56,0.00,,,0.00,WUHU216HW,2013-01-10 03:30:00,
2013-01-09 22:35:00,50.0,34.9,30.40,North,0,0.0,0.0,56,0.00,,,0.00,WUHU216HW,2013-01-10 03:35:00,
2013-01-09 22:59:00,50.0,27.7,30.41,North,0,0.0,0.0,42,0.00,,,0.00,WUHU216HW,2013-01-10 03:59:00,
2013-01-09 23:00:00,50.0,27.7,30.41,North,0,0.0,0.0,42,0.00,,,0.00,WUHU216HW,2013-01-10 04:00:00,
2013-01-09 23:05:00,50.0,27.7,30.41,North,0,0.0,0.0,42,0.00,,,0.00,WUHU216HW,2013-01-10 04:05:00,
2013-01-09 23:30:00,49.9,19.6,30.40,North,0,0.0,0.0,30,0.00,,,0.00,WUHU216HW,2013-01-10 04:30:00,
2013-01-09 23:35:00,49.9,19.6,30.40,North,0,0.0,0.0,30,0.00,,,0.00,WUHU216HW,2013-01-10 04:35:00,
2013-01-09 23:59:00,50.8,23.2,30.42,North,0,0.0,0.0,34,0.00,,,0.00,WUHU216HW,2013-01-10 04:59:00,